2021-05-05 00:07:45 r, 20.94m,0000000001Hz,0001272432c,0000002.761s, 014.1C,00002191
2021-05-05 00:17:47 r, 20.94m,0000000000Hz,0001280661c,0000002.779s, 014.1C,00002191
2021-05-05 00:27:46 r, 20.94m,0000000001Hz,0001274457c,0000002.766s, 013.8C,00002191
2021-05-05 00:37:45 r, 20.94m,0000000001Hz,0001274465c,0000002.766s, 013.8C,00002191
2021-05-05 00:47:47 r, 20.93m,0000000000Hz,0001269083c,0000002.754s, 013.5C,00002191
2021-05-05 00:57:46 r, 20.94m,0000000001Hz,0001271598c,0000002.760s, 013.5C,00002191
2021-05-05 01:07:45 r, 20.94m,0000000001Hz,0001273387c,0000002.763s, 013.5C,00002191
2021-05-05 01:17:46 r, 20.94m,0000000001Hz,0001277317c,0000002.772s, 013.2C,00002191
2021-05-05 01:27:46 r, 20.94m,0000000000Hz,0001282187c,0000002.783s, 013.2C,00002191
2021-05-05 01:37:45 r, 20.94m,0000000000Hz,0001280117c,0000002.778s, 013.2C,00002191
2021-05-05 01:47:46 r, 20.95m,0000000001Hz,0001286611c,0000002.792s, 012.8C,00002191
2021-05-05 01:57:46 r, 20.96m,0000000000Hz,0001303418c,0000002.829s, 012.8C,00002191
2021-05-05 02:07:45 r, 20.96m,0000000001Hz,0001309278c,0000002.841s, 012.8C,00002191
2021-05-05 02:17:46 r, 20.97m,0000000000Hz,0001313892c,0000002.851s, 012.5C,00002191
2021-05-05 02:27:47 r, 20.96m,0000000000Hz,0001308565c,0000002.840s, 012.5C,00002191
2021-05-05 02:37:45 r, 20.96m,0000000000Hz,0001299406c,0000002.820s, 012.5C,00002191
2021-05-05 02:47:47 r, 20.96m,0000000000Hz,0001295628c,0000002.812s, 012.2C,00002191
2021-05-05 02:57:46 r, 20.96m,0000000001Hz,0001295562c,0000002.812s, 012.2C,00002191
2021-05-05 03:07:45 r, 20.95m,0000000000Hz,0001293267c,0000002.807s, 012.2C,00002191
2021-05-05 03:17:47 r, 20.94m,0000000000Hz,0001281080c,0000002.780s, 011.9C,00002191
2021-05-05 03:27:46 r, 20.94m,0000000001Hz,0001274494c,0000002.766s, 011.9C,00002191
2021-05-05 03:37:45 r, 20.93m,0000000000Hz,0001267816c,0000002.751s, 011.9C,00002191
2021-05-05 03:47:46 r, 20.92m,0000000001Hz,0001249116c,0000002.711s, 011.9C,00002191
2021-05-05 03:57:46 r, 20.88m,0000000000Hz,0001205916c,0000002.617s, 011.9C,00002191
2021-05-05 04:07:45 r, 20.78m,0000000001Hz,0001105944c,0000002.400s, 011.9C,00002191
2021-05-05 04:17:46 r, 20.57m,0000000001Hz,0000911852c,0000001.979s, 011.6C,00002191
2021-05-05 04:27:46 r, 20.13m,0000000001Hz,0000616047c,0000001.337s, 011.6C,00002191
2021-05-05 04:37:45 r, 19.42m,0000000001Hz,0000319734c,0000000.694s, 011.6C,00002191
2021-05-05 04:47:46 r, 18.46m,0000000003Hz,0000132467c,0000000.287s, 011.6C,00002191
2021-05-05 04:57:47 r, 17.31m,0000000010Hz,0000046016c,0000000.100s, 011.6C,00002191
2021-05-05 05:07:45 r, 15.90m,0000000036Hz,0000012566c,0000000.027s, 011.6C,00002191
2021-05-05 05:17:47 r, 14.16m,0000000183Hz,0000000000c,0000000.000s, 011.6C,00002191
2021-05-05 05:27:46 r, 12.35m,0000000973Hz,0000000000c,0000000.000s, 011.2C,00002191
2021-05-05 05:37:45 r, 10.61m,0000004834Hz,0000000000c,0000000.000s, 011.2C,00002191
2021-05-05 05:47:47 r, 09.08m,0000019783Hz,0000000000c,0000000.000s, 011.2C,00002191
2021-05-05 05:57:46 r, 07.93m,0000056645Hz,0000000000c,0000000.000s, 010.9C,00002191
2021-05-05 06:07:45 r, 07.13m,0000119001Hz,0000000000c,0000000.000s, 010.3C,00002191
2021-05-05 06:17:46 r, 06.56m,0000199687Hz,0000000000c,0000000.000s, 009.6C,00002191
2021-05-05 06:27:46 r, 06.17m,0000287151Hz,0000000000c,0000000.000s, 009.3C,00002191
2021-05-05 06:37:45 r, 05.87m,0000377434Hz,0000000000c,0000000.000s, 009.3C,00002191
2021-05-05 06:47:46 r, 00.00m,0000461020Hz,0000000000c,0000000.000s, 010.3C,00002191
2021-05-05 06:57:46 r, 00.00m,0000540119Hz,0000000000c,0000000.000s, 011.2C,00002191
2021-05-05 07:07:45 r, 00.00m,0000597569Hz,0000000000c,0000000.000s, 012.8C,00002191
2021-05-05 07:17:47 r, 00.00m,0000597500Hz,0000000000c,0000000.000s, 014.1C,00002191
2021-05-05 07:27:46 r, 00.00m,0000597316Hz,0000000000c,0000000.000s, 015.4C,00002191
2021-05-05 07:37:45 r, 00.00m,0000597223Hz,0000000000c,0000000.000s, 016.7C,00002191
2021-05-05 07:47:47 r, 00.00m,0000597101Hz,0000000000c,0000000.000s, 018.0C,00002191
2021-05-05 07:57:46 r, 00.00m,0000596981Hz,0000000000c,0000000.000s, 019.3C,00002191
2021-05-05 08:07:45 r, 00.00m,0000596857Hz,0000000000c,0000000.000s, 020.3C,00002191
2021-05-05 08:17:46 r, 00.00m,0000596821Hz,0000000000c,0000000.000s, 020.9C,00002191
2021-05-05 08:27:46 r, 00.00m,0000596723Hz,0000000000c,0000000.000s, 022.2C,00002191
2021-05-05 08:37:45 r, 00.00m,0000596582Hz,0000000000c,0000000.000s, 023.5C,00002191
2021-05-05 08:47:46 r, 00.00m,0000596440Hz,0000000000c,0000000.000s, 024.1C,00002191
2021-05-05 08:57:46 r, 00.00m,0000596348Hz,0000000000c,0000000.000s, 025.4C,00002191
2021-05-05 09:07:45 r, 00.00m,0000596253Hz,0000000000c,0000000.000s, 026.1C,00002191
2021-05-05 09:17:46 r, 00.00m,0000596130Hz,0000000000c,0000000.000s, 027.0C,00002191
2021-05-05 09:27:47 r, 00.00m,0000595981Hz,0000000000c,0000000.000s, 027.7C,00002191
2021-05-05 09:37:45 r, 00.00m,0000595954Hz,0000000000c,0000000.000s, 028.6C,00002191
2021-05-05 09:47:47 r, 00.00m,0000595861Hz,0000000000c,0000000.000s, 029.3C,00002191
2021-05-05 09:57:46 r, 00.00m,0000595634Hz,0000000000c,0000000.000s, 030.2C,00002191
2021-05-05 10:07:45 r, 00.00m,0000595466Hz,0000000000c,0000000.000s, 031.2C,00002191
2021-05-05 10:17:47 r, 00.00m,0000595302Hz,0000000000c,0000000.000s, 032.2C,00002191
2021-05-05 10:27:46 r, 00.00m,0000595211Hz,0000000000c,0000000.000s, 032.8C,00002191
2021-05-05 10:37:45 r, 00.00m,0000595200Hz,0000000000c,0000000.000s, 033.5C,00002191
2021-05-05 10:47:46 r, 00.00m,0000595197Hz,0000000000c,0000000.000s, 033.8C,00002191
2021-05-05 10:57:46 r, 00.00m,0000594962Hz,0000000000c,0000000.000s, 034.4C,00002191
2021-05-05 11:07:45 r, 00.00m,0000594913Hz,0000000000c,0000000.000s, 035.1C,00002191
2021-05-05 11:17:45 r, 00.00m,0000594898Hz,0000000000c,0000000.000s, 035.7C,00002191
2021-05-05 11:27:47 r, 00.00m,0000594720Hz,0000000000c,0000000.000s, 036.4C,00002191
2021-05-05 11:37:46 r, 00.00m,0000594710Hz,0000000000c,0000000.000s, 037.0C,00002191
2021-05-05 11:47:45 r, 00.00m,0000594588Hz,0000000000c,0000000.000s, 037.3C,00002191
2021-05-05 11:57:46 r, 00.00m,0000594546Hz,0000000000c,0000000.000s, 037.7C,00002191
2021-05-05 12:07:46 r, 00.00m,0000594435Hz,0000000000c,0000000.000s, 038.3C,00002191
2021-05-05 12:17:45 r, 00.00m,0000594368Hz,0000000000c,0000000.000s, 038.3C,00002191
2021-05-05 12:27:46 r, 00.00m,0000594397Hz,0000000000c,0000000.000s, 038.6C,00002191
2021-05-05 12:37:46 r, 00.00m,0000594305Hz,0000000000c,0000000.000s, 039.0C,00002191
2021-05-05 12:47:45 r, 00.00m,0000594324Hz,0000000000c,0000000.000s, 039.3C,00002191
2021-05-05 12:57:46 r, 00.00m,0000594249Hz,0000000000c,0000000.000s, 039.3C,00002191
2021-05-05 13:07:47 r, 00.00m,0000594222Hz,0000000000c,0000000.000s, 039.3C,00002191
2021-05-05 13:17:45 r, 00.00m,0000594388Hz,0000000000c,0000000.000s, 038.6C,00002191
2021-05-05 13:27:48 r, 00.00m,0000594204Hz,0000000000c,0000000.000s, 039.6C,00002191
2021-05-05 13:37:46 r, 00.00m,0000594254Hz,0000000000c,0000000.000s, 039.3C,00002191
2021-05-05 13:47:45 r, 00.00m,0000594212Hz,0000000000c,0000000.000s, 039.3C,00002191
2021-05-05 13:57:48 r, 00.00m,0000594259Hz,0000000000c,0000000.000s, 039.3C,00002191
2021-05-05 14:07:46 r, 00.00m,0000594099Hz,0000000000c,0000000.000s, 040.2C,00002191
2021-05-05 14:17:45 r, 00.00m,0000593959Hz,0000000000c,0000000.000s, 040.6C,00002191
2021-05-05 14:27:46 r, 00.00m,0000594099Hz,0000000000c,0000000.000s, 040.2C,00002191
2021-05-05 14:37:46 r, 00.00m,0000593934Hz,0000000000c,0000000.000s, 040.9C,00002191
2021-05-05 14:47:45 r, 00.00m,0000593985Hz,0000000000c,0000000.000s, 041.2C,00002191
2021-05-05 14:57:47 r, 00.00m,0000593968Hz,0000000000c,0000000.000s, 041.5C,00002191
2021-05-05 15:07:46 r, 00.00m,0000593802Hz,0000000000c,0000000.000s, 042.5C,00002191
2021-05-05 15:17:45 r, 00.00m,0000593903Hz,0000000000c,0000000.000s, 042.2C,00002191
2021-05-05 15:27:48 r, 00.00m,0000594035Hz,0000000000c,0000000.000s, 041.2C,00002191
2021-05-05 15:37:46 r, 00.00m,0000594064Hz,0000000000c,0000000.000s, 040.6C,00002191
2021-05-05 15:47:45 r, 00.00m,0000594042Hz,0000000000c,0000000.000s, 040.9C,00002191
2021-05-05 15:57:48 r, 00.00m,0000594120Hz,0000000000c,0000000.000s, 040.6C,00002191
2021-05-05 16:07:46 r, 00.00m,0000594133Hz,0000000000c,0000000.000s, 040.6C,00002191
2021-05-05 16:17:45 r, 00.00m,0000594240Hz,0000000000c,0000000.000s, 039.9C,00002191
2021-05-05 16:27:46 r, 00.00m,0000594254Hz,0000000000c,0000000.000s, 039.6C,00002191
2021-05-05 16:37:47 r, 00.00m,0000594354Hz,0000000000c,0000000.000s, 039.0C,00002191
2021-05-05 16:47:45 r, 00.00m,0000595074Hz,0000000000c,0000000.000s, 034.8C,00002191
2021-05-05 16:57:47 r, 00.00m,0000594892Hz,0000000000c,0000000.000s, 034.8C,00002191
2021-05-05 17:07:46 r, 00.00m,0000594839Hz,0000000000c,0000000.000s, 035.7C,00002191
2021-05-05 17:17:45 r, 00.00m,0000594868Hz,0000000000c,0000000.000s, 035.7C,00002191
2021-05-05 17:27:46 r, 00.00m,0000594940Hz,0000000000c,0000000.000s, 035.4C,00002191
2021-05-05 17:37:48 r, 00.00m,0000594854Hz,0000000000c,0000000.000s, 035.7C,00002191
2021-05-05 17:47:45 r, 00.00m,0000594881Hz,0000000000c,0000000.000s, 036.0C,00002191
2021-05-05 17:57:48 r, 00.00m,0000594892Hz,0000000000c,0000000.000s, 035.7C,00002191
2021-05-05 18:07:46 r, 00.00m,0000594970Hz,0000000000c,0000000.000s, 035.4C,00002191
2021-05-05 18:17:45 r, 00.00m,0000595157Hz,0000000000c,0000000.000s, 034.8C,00002191
2021-05-05 18:27:46 r, 00.00m,0000595151Hz,0000000000c,0000000.000s, 034.1C,00002191
2021-05-05 18:37:47 r, 00.00m,0000595201Hz,0000000000c,0000000.000s, 032.8C,00002191
2021-05-05 18:47:45 r, 00.00m,0000595264Hz,0000000000c,0000000.000s, 032.2C,00002191
2021-05-05 18:57:47 r, 00.00m,0000595322Hz,0000000000c,0000000.000s, 031.2C,00002191
2021-05-05 19:07:46 r, 00.00m,0000595509Hz,0000000000c,0000000.000s, 030.6C,00002191
2021-05-05 19:17:45 r, 00.00m,0000595646Hz,0000000000c,0000000.000s, 029.6C,00002191
2021-05-05 19:27:46 r, 00.00m,0000595631Hz,0000000000c,0000000.000s, 028.6C,00002191
2021-05-05 19:37:48 r, 00.00m,0000595823Hz,0000000000c,0000000.000s, 028.0C,00002191
2021-05-05 19:47:45 r, 00.00m,0000595927Hz,0000000000c,0000000.000s, 027.0C,00002191
2021-05-05 19:57:48 r, 00.00m,0000596022Hz,0000000000c,0000000.000s, 026.4C,00002191
2021-05-05 20:07:46 r, 00.00m,0000596106Hz,0000000000c,0000000.000s, 025.7C,00002191
2021-05-05 20:17:45 r, 06.04m,0000323753Hz,0000000000c,0000000.000s, 025.1C,00002191
2021-05-05 20:27:48 r, 06.40m,0000233293Hz,0000000000c,0000000.000s, 023.8C,00002191
2021-05-05 20:37:46 r, 06.87m,0000151484Hz,0000000000c,0000000.000s, 022.5C,00002191
2021-05-05 20:47:45 r, 07.54m,0000081550Hz,0000000000c,0000000.000s, 021.5C,00002191
2021-05-05 20:57:46 r, 08.49m,0000034281Hz,0000000000c,0000000.000s, 020.6C,00002191
2021-05-05 21:07:47 r, 09.76m,0000010574Hz,0000000000c,0000000.000s, 019.6C,00002191
2021-05-05 21:17:45 r, 11.37m,0000002389Hz,0000000000c,0000000.000s, 018.6C,00002191
2021-05-05 21:27:47 r, 13.14m,0000000470Hz,0000000000c,0000000.000s, 017.4C,00002191
2021-05-05 21:37:46 r, 14.97m,0000000086Hz,0000005343c,0000000.012s, 016.7C,00002191
2021-05-05 21:47:45 r, 16.62m,0000000019Hz,0000024315c,0000000.053s, 016.4C,00002191
2021-05-05 21:57:46 r, 17.87m,0000000006Hz,0000077539c,0000000.168s, 016.1C,00002191
2021-05-05 22:07:48 r, 18.93m,0000000002Hz,0000204037c,0000000.443s, 015.7C,00002191
2021-05-05 22:17:45 r, 19.77m,0000000001Hz,0000441802c,0000000.959s, 015.7C,00002191
2021-05-05 22:27:48 r, 20.35m,0000000001Hz,0000747628c,0000001.622s, 015.4C,00002191
2021-05-05 22:37:46 r, 20.67m,0000000001Hz,0000997904c,0000002.166s, 015.1C,00002191
2021-05-05 22:47:45 r, 20.80m,0000000000Hz,0001134444c,0000002.462s, 015.1C,00002191
2021-05-05 22:57:48 r, 20.87m,0000000001Hz,0001196592c,0000002.597s, 015.1C,00002191
2021-05-05 23:07:46 r, 20.89m,0000000000Hz,0001226232c,0000002.661s, 014.8C,00002191
2021-05-05 23:17:45 r, 20.90m,0000000000Hz,0001232248c,0000002.674s, 014.5C,00002191
2021-05-05 23:27:46 r, 20.90m,0000000001Hz,0001232752c,0000002.675s, 014.5C,00002191
2021-05-05 23:37:48 r, 20.90m,0000000000Hz,0001235065c,0000002.680s, 014.1C,00002191
2021-05-05 23:47:45 r, 20.89m,0000000000Hz,0001223510c,0000002.655s, 013.8C,00002191
2021-05-05 23:57:47 r, 20.89m,0000000000Hz,0001224607c,0000002.658s, 013.5C,00002191
